Greenville Downtown, SC

4:10 AM EDT on October 17, 2017 (GMT -0400)
Greenville Downtown

Weather History for KGMU - February, 2012

Change the Weather History Date:

Wednesday, February 15, 2012

  Actual Average Record
Temperature  
Mean Temperature 48 °F -  
Max Temperature 64 °F 53 °F 66 °F (2001)
Min Temperature 33 °F 36 °F 18 °F (2015)
Degree Days  
Heating Degree Days 16    
Moisture  
Dew Point 35 °F    
Average Humidity 74    
Maximum Humidity 100    
Minimum Humidity 29    
Precipitation  
Precipitation 0.00 in - - ()
Sea Level Pressure  
Sea Level Pressure 30.18 in    
Wind  
Wind Speed 4 mph (NNE)    
Max Wind Speed 8 mph    
Max Gust Speed -    
Visibility 6 miles    
Events Fog    
Averages and records for this station are not official NWS values.
T = Trace of Precipitation, MM = Missing Value Source: NWS Daily Summary

Daily Weather History Graph

Daily Weather History Graph

Search for Another Location

Airport or City:

Trip Planner

Search our weather history database for the weather conditions in past years. The results will help you decide how hot, cold, wet, or windy it might be!

Date:

Astronomy

Feb. 15, 2012 Rise Set
Actual Time 7:15 AM EST 6:11 PM EST
Civil Twilight 6:49 AM EST 6:37 PM EST
Nautical Twilight 6:20 AM EST 7:07 PM EST
Astronomical Twilight 5:50 AM EST 7:36 PM EST
Moon 2:00 AM EST (2/15) 12:13 PM EST (2/15)
Length of Visible Light 11h 47m
Length of Day
10h 56m
Last Quarter, 39% of the Moon is Illuminated
Feb 15
Last Quarter
Feb 21
New
Feb 29
First Quarter
Mar 8
Full
Mar 14
Last Quarter

Hourly Weather History & Observations

Time (EST) Temp. Windchill Dew Point Humidity Pressure Visibility Wind Dir Wind Speed Gust Speed Precip Events Conditions
1:46 AM 39.2 °F 34.2 °F 37.4 °F 93% 30.11 in 3.0 mi WNW 6.9 mph - N/A   Scattered Clouds
1:53 AM 39.0 °F 34.0 °F 37.0 °F 93% 30.13 in 3.0 mi West 6.9 mph - N/A   Mostly Cloudy
2:06 AM 37.4 °F 33.8 °F 37.4 °F 100% 30.12 in 2.5 mi West 4.6 mph - N/A   Scattered Clouds
2:29 AM 39.2 °F 35.9 °F 37.4 °F 93% 30.11 in 3.0 mi NW 4.6 mph - N/A   Scattered Clouds
2:44 AM 37.4 °F 34.9 °F 37.4 °F 100% 30.11 in 2.5 mi WNW 3.5 mph - N/A   Scattered Clouds
2:53 AM 37.9 °F - 37.0 °F 97% 30.12 in 2.5 mi Calm Calm - N/A   Partly Cloudy
3:27 AM 37.4 °F 33.8 °F 37.4 °F 100% 30.12 in 1.0 mi WNW 4.6 mph - N/A   Mist
3:33 AM 37.4 °F 33.8 °F 35.6 °F 93% 30.12 in 0.2 mi NW 4.6 mph - N/A Fog Fog
3:53 AM 37.0 °F 34.5 °F 37.0 °F 100% 30.14 in 0.2 mi NW 3.5 mph - N/A Fog Fog
4:53 AM 35.1 °F - 34.0 °F 96% 30.15 in 0.2 mi Calm Calm - N/A Fog Fog
5:03 AM 35.6 °F - 33.8 °F 93% 30.14 in 0.2 mi Calm Calm - N/A Fog Fog
5:15 AM 35.6 °F 32.8 °F 33.8 °F 93% 30.14 in 1.2 mi NNW 3.5 mph - N/A   Mist
5:31 AM 33.8 °F - 33.8 °F 100% 30.14 in 0.5 mi Calm Calm - N/A Fog Fog
5:48 AM 33.8 °F - 33.8 °F 100% 30.15 in 0.2 mi Calm Calm - N/A Fog Fog
5:53 AM 33.1 °F - 33.1 °F 100% 30.17 in 0.2 mi Calm Calm - N/A Fog Fog
6:53 AM 33.1 °F - 32.0 °F 96% 30.19 in 0.5 mi Calm Calm - N/A Fog Fog
6:58 AM 33.8 °F - 32.0 °F 93% 30.17 in 1.2 mi Calm Calm - N/A   Scattered Clouds
7:02 AM 33.8 °F - 32.0 °F 93% 30.17 in 3.0 mi Calm Calm - N/A   Scattered Clouds
7:53 AM 33.1 °F - 33.1 °F 100% 30.22 in 10.0 mi Calm Calm - N/A   Clear
8:53 AM 44.1 °F 41.5 °F 39.0 °F 82% 30.25 in 10.0 mi NNE 4.6 mph - N/A   Clear
9:53 AM 50.0 °F - 37.0 °F 61% 30.25 in 10.0 mi NE 5.8 mph - N/A   Clear
10:53 AM 54.0 °F - 37.9 °F 55% 30.27 in 10.0 mi East 3.5 mph - N/A   Clear
11:53 AM 57.9 °F - 36.0 °F 44% 30.26 in 10.0 mi East 8.1 mph - N/A   Clear
12:53 PM 61.0 °F - 37.0 °F 41% 30.24 in 10.0 mi East 5.8 mph - N/A   Clear
1:53 PM 63.0 °F - 35.1 °F 35% 30.21 in 10.0 mi East 5.8 mph - N/A   Clear
2:53 PM 64.0 °F - 32.0 °F 30% 30.19 in 10.0 mi ESE 4.6 mph - N/A   Clear
3:53 PM 64.0 °F - 32.0 °F 30% 30.19 in 10.0 mi ESE 8.1 mph - N/A   Clear
4:53 PM 64.0 °F - 30.9 °F 29% 30.19 in 10.0 mi ESE 5.8 mph - N/A   Clear
5:53 PM 61.0 °F - 34.0 °F 36% 30.20 in 10.0 mi SE 5.8 mph - N/A   Clear
6:53 PM 57.9 °F - 33.1 °F 39% 30.22 in 10.0 mi East 3.5 mph - N/A   Clear
7:53 PM 55.9 °F - 34.0 °F 44% 30.23 in 10.0 mi Calm Calm - N/A   Clear
8:53 PM 55.0 °F - 35.1 °F 47% 30.26 in 10.0 mi Calm Calm - N/A   Clear
9:53 PM 51.1 °F - 37.0 °F 59% 30.22 in 10.0 mi ESE 4.6 mph - N/A   Clear
10:53 PM 51.1 °F - 37.9 °F 61% 30.23 in 10.0 mi North 5.8 mph - N/A   Partly Cloudy
11:53 PM 50.0 °F - 36.0 °F 59% 30.22 in 10.0 mi Calm Calm - N/A   Partly Cloudy